This demonstration page uses our WeatherBlox Daily Observations layout. Learn more.

41.55636, -103.73856

Hourly Observations for April 30, 2019

Temp ( °F °C ) Dew Point ( °F °C ) Humidity (%) Winds ( mph kmh ) Pressure ( in mb ) Visibility ( mi km ) Precip ( " mm )
12:13 am 00:13 Mostly Cloudy with Snow 32 0 32 0 100 100 ESE 15 24 30.21 1023 0.5 0.804672 0.06 1.524
12:34 am 00:34 Mostly Cloudy with Snow 32 0 32 0 100 100 E 18 30 30.21 1023 0.5 0.804672 0.12 3.048
12:46 am 00:46 Cloudy with Light Snow 32 0 32 0 100 100 E 18 30 30.18 1022 1 1.609344 0.13 3.302
12:53 am 00:53 Cloudy with Light Snow 32 0 32 0 100 100 E 18 30 30.09 1019 1.75 2.816352 0.13 3.302
1:00 am 01:00 Cloudy with Light Snow 32 0 30 -1 93 93 E 17 28 30.18 1022 2 3.218688 0 0
1:07 am 01:07 Cloudy with Light Snow 32 0 30 -1 93 93 E 17 28 30.18 1022 2.5 4.02336 0 0
1:23 am 01:23 Cloudy with Light Snow 32 0 32 0 100 100 ESE 15 24 30.21 1023 1.25 2.01168 0.02 0.508
1:39 am 01:39 Cloudy with Light Snow 32 0 31 -0.6 96 96 ESE 14 22 30.21 1023 0.75 1.207008 0.05 1.27
1:51 am 01:51 Cloudy with Light Snow 32 0 32 0 100 100 ESE 14 22 30.18 1022 1 1.609344 0.07 1.778
1:53 am 01:53 Cloudy with Light Snow 32 0 32 0 100 100 ESE 15 24 30.09 1019 1 1.609344 0.07 1.778
1:58 am 01:58 Cloudy with Light Snow 32 0 32 0 100 100 ESE 15 24 30.18 1022 0.75 1.207008 0.01 0.254
2:05 am 02:05 Cloudy with Light Snow 32 0 32 0 100 100 ESE 14 22 30.18 1022 0.75 1.207008 0.02 0.508
2:53 am 02:53 Mostly Cloudy with Snow 31 -0.6 31 -0.6 100 100 ESE 15 24 30.06 1018 0.5 0.804672 0.13 3.302
3:01 am 03:01 Mostly Cloudy with Snow 31 -0.6 31 -0.6 100 100 ESE 15 24 30.15 1021 0.5 0.804672 0.01 0.254
3:32 am 03:32 Mostly Cloudy with Snow 30 -1 30 -1 100 100 ESE 18 30 30.15 1021 0.5 0.804672 0 0
3:43 am 03:43 Mostly Cloudy with Snow 31 -0.6 31 -0.6 100 100 ESE 18 30 30.15 1021 0.5 0.804672 0.08 2.032
3:53 am 03:53 Cloudy with Light Snow 31 -0.6 31 -0.6 100 100 ESE 17 28 30.06 1018 1.25 2.01168 0.08 2.032
4:00 am 04:00 Cloudy with Light Snow 30 -1 30 -1 100 100 ESE 16 26 30.15 1021 1.5 2.414016 0 0
4:10 am 04:10 Cloudy with Light Snow 30 -1 30 -1 100 100 ESE 15 24 30.15 1021 2 3.218688 0 0
4:27 am 04:27 Cloudy with Light Snow 31 -0.6 31 -0.6 100 100 ESE 17 28 30.12 1020 4 6.437376 0.01 0.254
4:53 am 04:53 Cloudy 31 -0.6 31 -0.6 100 100 ESE 23 37 30 1016 10 16.09344 0.01 0.254
5:53 am 05:53 Cloudy 31 -0.6 30 -1.1 96 96 ESE 23 37 30 1016 10 16.09344 0 0
6:53 am 06:53 Cloudy 31 -0.6 31 -0.6 100 100 ESE 21 33 30 1016 10 16.09344 0 0
7:53 am 07:53 Cloudy with Mist and Fog 31 -0.6 31 -0.6 100 100 ESE 18 30 30 1016 6 9.656064 0 0
8:53 am 08:53 Cloudy 32 0 31 -0.6 96 96 ESE 18 30 30 1016 8 12.874752 0 0
9:30 am 09:30 Cloudy with Light Wintry Mix 32 0 32 0 100 100 ESE 18 30 30.03 1017 2 3.218688 0 0
9:37 am 09:37 Cloudy with Mist and Fog 32 0 32 0 100 100 ESE 20 31 30.03 1017 1.75 2.816352 0.001 0.001
9:53 am 09:53 Cloudy with Mist and Fog 32 0 32 0 100 100 ESE 17 28 30 1016 1.75 2.816352 0.001 0.001
10:08 am 10:08 Cloudy with Mist and Fog 32 0 32 0 100 100 ESE 15 24 30.03 1017 2 3.218688 0 0
10:53 am 10:53 Cloudy with Mist and Fog 33 0.6 32 0 96 96 ESE 15 24 30 1016 2.5 4.02336 0 0
11:09 am 11:09 Cloudy with Mist and Fog 33 0.6 32 0 96 96 ESE 16 26 30.06 1018 4 6.437376 0.001 0.001
11:53 am 11:53 Cloudy with Light Wintry Mix 33 0.6 32 0 96 96 ESE 14 22 30 1016 3 4.828032 0.001 0.001
12:20 pm 12:20 Cloudy with Mist and Fog 34 1.1 33 0.6 97 97 ESE 16 26 30.03 1017 2.5 4.02336 0.001 0.001
12:53 pm 12:53 Cloudy with Mist and Fog 34 1.1 33 0.6 97 97 E 12 19 29.97 1015 2.5 4.02336 0.001 0.001
1:27 pm 13:27 Cloudy with Mist and Fog 34 1.1 33 0.6 97 97 E 10 17 30.03 1017 2 3.218688 0 0
1:49 pm 13:49 Cloudy with Mist and Fog 34 1 34 1 100 100 E 12 19 30.03 1017 2 3.218688 0 0
1:53 pm 13:53 Cloudy with Mist and Fog 34 1.1 33 0.6 97 97 E 12 19 29.97 1015 2 3.218688 0 0
2:24 pm 14:24 Cloudy with Mist and Fog 34 1 34 1 100 100 E 10 17 30.03 1017 3 4.828032 0 0
2:53 pm 14:53 Cloudy with Mist and Fog 34 1.1 33 0.6 97 97 E 10 17 29.97 1015 4 6.437376 0 0
3:53 pm 15:53 Cloudy with Light Snow 34 1.1 33 0.6 97 97 E 9 15 30 1016 1.25 2.01168 0.01 0.254
4:10 pm 16:10 Cloudy with Light Snow 34 1 34 1 100 100 ESE 8 13 30.03 1017 1.75 2.816352 0 0
4:17 pm 16:17 Cloudy with Light Snow 34 1.1 33 0.6 97 97 E 7 11 30.03 1017 3 4.828032 0.001 0.001
4:23 pm 16:23 Cloudy with Light Snow 34 1.1 33 0.6 97 97 E 8 13 30.03 1017 4 6.437376 0.001 0.001
4:33 pm 16:33 Cloudy 34 1.1 33 0.6 97 97 E 8 13 30.03 1017 7 11.265408 0.001 0.001
4:53 pm 16:53 Cloudy 35 1.7 33 0.6 93 93 E 8 13 29.97 1015 10 16.09344 0.001 0.001
5:01 pm 17:01 Mostly Cloudy 35 1.7 33 0.6 93 93 ENE 6 9 30 1016 10 16.09344 0 0
5:09 pm 17:09 Mostly Cloudy 36 2.2 33 0.6 89 89 ENE 7 11 30 1016 10 16.09344 0 0
6:19 pm 18:19 Cloudy 36 2.2 32 0 86 86 ENE 3 6 30.03 1017 10 16.09344 0 0
6:46 pm 18:46 Cloudy 36 2 32 0 87 87 E 6 9 30.03 1017 10 16.09344 0 0
6:53 pm 18:53 Cloudy 36 2.2 33 0.6 89 89 E 7 11 30 1016 10 16.09344 0 0
7:24 pm 19:24 Cloudy 36 2 34 1 93 93 E 7 11 30.03 1017 10 16.09344 0 0
7:53 pm 19:53 Cloudy 35 1.7 33 0.6 93 93 E 8 13 30 1016 10 16.09344 0 0
8:04 pm 20:04 Cloudy 36 2 34 1 93 93 E 10 17 30 1016 10 16.09344 0 0
8:37 pm 20:37 Cloudy 35 1.7 32 0 89 89 ESE 6 9 30.06 1018 10 16.09344 0 0
8:47 pm 20:47 Cloudy 34 1 32 0 93 93 E 8 13 30.06 1018 10 16.09344 0 0
8:53 pm 20:53 Cloudy 34 1.1 32 0 92 92 E 9 15 30.03 1017 10 16.09344 0 0
9:53 pm 21:53 Cloudy 34 1.1 32 0 92 92 E 9 15 30.03 1017 10 16.09344 0 0
10:53 pm 22:53 Cloudy 34 1.1 33 0.6 97 97 E 7 11 30 1016 10 16.09344 0 0
11:53 pm 23:53 Cloudy 33 0.6 32 0 96 96 E 12 19 30 1016 10 16.09344 0 0

Powered by AerisWeather